Time,TemperatureF,DewpointF,PressureIn,WindDirection,WindDirectionDegrees,WindSpeedMPH,WindSpeedGustMPH,Humidity,HourlyPrecipIn,Conditions,Clouds,dailyrainin,SoftwareType,DateUTC
2013-03-14 00:12:00,28.0,16.0,-100.00,ENE,65,5.0,10.0,60,0.00,,,-99.99,,2013-03-14 04:12:00,
2013-03-14 00:22:00,28.0,16.0,-100.00,ENE,65,7.0,19.0,59,0.00,,,-99.99,,2013-03-14 04:22:00,
2013-03-14 00:32:00,28.0,14.0,-100.00,ENE,60,15.0,22.0,56,0.00,,,-99.99,,2013-03-14 04:32:00,
2013-03-14 00:42:00,28.0,14.0,-100.00,ENE,65,15.0,23.0,55,0.00,,,-99.99,,2013-03-14 04:42:00,
2013-03-14 00:52:00,28.0,14.0,-100.00,ENE,65,11.0,20.0,56,0.00,,,-99.99,,2013-03-14 04:52:00,
2013-03-14 01:02:00,27.0,14.0,-100.00,East,80,9.0,19.0,57,0.00,,,-99.99,,2013-03-14 05:02:00,
2013-03-14 01:12:00,27.0,15.0,-100.00,ENE,75,8.0,13.0,58,0.00,,,-99.99,,2013-03-14 05:12:00,
2013-03-14 01:22:00,27.0,15.0,-100.00,East,90,7.0,11.0,60,0.00,,,-99.99,,2013-03-14 05:22:00,
2013-03-14 01:33:00,27.0,15.0,-100.00,ENE,75,7.0,14.0,60,0.00,,,-99.99,,2013-03-14 05:33:00,
2013-03-14 01:42:00,26.0,15.0,-100.00,ENE,70,7.0,12.0,60,0.00,,,-99.99,,2013-03-14 05:42:00,
2013-03-14 01:52:00,26.0,15.0,-100.00,ENE,60,7.0,12.0,61,0.00,,,-99.99,,2013-03-14 05:52:00,
2013-03-14 02:02:00,26.0,15.0,-100.00,ENE,70,6.0,12.0,61,0.00,,,-99.99,,2013-03-14 06:02:00,
2013-03-14 02:12:00,26.0,15.0,-100.00,ENE,70,6.0,12.0,61,0.00,,,-99.99,,2013-03-14 06:12:00,
2013-03-14 02:22:00,26.0,15.0,-100.00,ENE,65,9.0,13.0,62,0.00,,,-99.99,,2013-03-14 06:22:00,
2013-03-14 02:33:00,26.0,15.0,-100.00,ENE,70,4.0,7.0,63,0.00,,,-99.99,,2013-03-14 06:33:00,
2013-03-14 02:42:00,26.0,15.0,-100.00,NE,55,6.0,9.0,63,0.00,,,-99.99,,2013-03-14 06:42:00,
2013-03-14 02:52:00,25.0,15.0,-100.00,ENE,65,4.0,7.0,64,0.00,,,-99.99,,2013-03-14 06:52:00,
2013-03-14 03:02:00,25.0,15.0,-100.00,ENE,70,4.0,9.0,64,0.00,,,-99.99,,2013-03-14 07:02:00,
2013-03-14 03:12:00,25.0,15.0,-100.00,NE,40,3.0,10.0,64,0.00,,,-99.99,,2013-03-14 07:12:00,
2013-03-14 03:22:00,25.0,15.0,-100.00,ENE,65,6.0,9.0,64,0.00,,,-99.99,,2013-03-14 07:22:00,
2013-03-14 03:32:00,25.0,15.0,-100.00,ENE,60,3.0,7.0,65,0.00,,,-99.99,,2013-03-14 07:32:00,
2013-03-14 03:42:00,25.0,15.0,-100.00,NE,55,4.0,8.0,65,0.00,,,-99.99,,2013-03-14 07:42:00,
2013-03-14 03:52:00,25.0,15.0,-100.00,NE,35,3.0,6.0,65,0.00,,,-99.99,,2013-03-14 07:52:00,
2013-03-14 04:02:00,25.0,15.0,-100.00,NNE,25,2.0,8.0,66,0.00,,,-99.99,,2013-03-14 08:02:00,
2013-03-14 04:12:00,25.0,15.0,-100.00,ENE,65,3.0,7.0,67,0.00,,,-99.99,,2013-03-14 08:12:00,
2013-03-14 04:22:00,25.0,15.0,-100.00,NE,55,3.0,9.0,67,0.00,,,-99.99,,2013-03-14 08:22:00,
2013-03-14 04:32:00,25.0,15.0,-100.00,NE,45,5.0,9.0,67,0.00,,,-99.99,,2013-03-14 08:32:00,
2013-03-14 04:42:00,24.0,15.0,-100.00,NE,45,3.0,6.0,67,0.00,,,-99.99,,2013-03-14 08:42:00,
2013-03-14 04:52:00,25.0,15.0,-100.00,ENE,70,4.0,10.0,66,0.00,,,-99.99,,2013-03-14 08:52:00,
2013-03-14 05:02:00,25.0,15.0,-100.00,ENE,70,4.0,9.0,66,0.00,,,-99.99,,2013-03-14 09:02:00,
2013-03-14 05:12:00,25.0,15.0,-100.00,ENE,70,6.0,9.0,65,0.00,,,-99.99,,2013-03-14 09:12:00,
2013-03-14 05:22:00,25.0,15.0,-100.00,ENE,65,5.0,9.0,64,0.00,,,-99.99,,2013-03-14 09:22:00,
2013-03-14 05:32:00,25.0,14.0,-100.00,ENE,60,4.0,9.0,64,0.00,,,-99.99,,2013-03-14 09:32:00,
2013-03-14 05:42:00,25.0,14.0,-100.00,ENE,75,2.0,4.0,64,0.00,,,-99.99,,2013-03-14 09:42:00,
2013-03-14 05:52:00,25.0,14.0,-100.00,NE,50,2.0,5.0,64,0.00,,,-99.99,,2013-03-14 09:52:00,
2013-03-14 06:02:00,25.0,15.0,-100.00,ESE,110,3.0,7.0,65,0.00,,,-99.99,,2013-03-14 10:02:00,
2013-03-14 06:12:00,24.0,15.0,-100.00,East,80,2.0,6.0,65,0.00,,,-99.99,,2013-03-14 10:12:00,
2013-03-14 06:22:00,24.0,15.0,-100.00,East,80,3.0,7.0,65,0.00,,,-99.99,,2013-03-14 10:22:00,
2013-03-14 06:32:00,24.0,15.0,-100.00,ENE,75,2.0,7.0,65,0.00,,,-99.99,,2013-03-14 10:32:00,
2013-03-14 06:42:00,24.0,15.0,-100.00,ENE,75,1.0,6.0,66,0.00,,,-99.99,,2013-03-14 10:42:00,
2013-03-14 06:52:00,25.0,15.0,-100.00,ESE,110,1.0,4.0,66,0.00,,,-99.99,,2013-03-14 10:52:00,
2013-03-14 07:02:00,24.0,15.0,-100.00,East,90,1.0,5.0,66,0.00,,,-99.99,,2013-03-14 11:02:00,
2013-03-14 07:12:00,24.0,15.0,-100.00,SSE,155,2.0,5.0,67,0.00,,,-99.99,,2013-03-14 11:12:00,
2013-03-14 07:22:00,24.0,15.0,-100.00,ENE,75,1.0,4.0,68,0.00,,,-99.99,,2013-03-14 11:22:00,
2013-03-14 07:33:00,24.0,15.0,-100.00,NE,55,1.0,7.0,68,0.00,,,-99.99,,2013-03-14 11:33:00,
2013-03-14 07:42:00,24.0,15.0,-100.00,NE,55,3.0,6.0,68,0.00,,,-99.99,,2013-03-14 11:42:00,
2013-03-14 07:52:00,24.0,15.0,-100.00,NE,45,1.0,6.0,68,0.00,,,-99.99,,2013-03-14 11:52:00,
2013-03-14 08:02:00,24.0,16.0,-100.00,North,10,6.0,8.0,70,0.00,,,-99.99,,2013-03-14 12:02:00,
2013-03-14 08:12:00,24.0,16.0,-100.00,North,0,3.0,9.0,71,0.00,,,-99.99,,2013-03-14 12:12:00,
2013-03-14 08:22:00,24.0,16.0,-100.00,NNE,15,3.0,8.0,71,0.00,,,-99.99,,2013-03-14 12:22:00,
2013-03-14 08:33:00,24.0,16.0,-100.00,NNE,20,3.0,9.0,71,0.00,,,-99.99,,2013-03-14 12:33:00,
2013-03-14 08:42:00,24.0,16.0,-100.00,NNE,20,2.0,7.0,71,0.00,,,-99.99,,2013-03-14 12:42:00,
2013-03-14 08:52:00,25.0,16.0,-100.00,NE,35,2.0,6.0,69,0.00,,,-99.99,,2013-03-14 12:52:00,
2013-03-14 09:02:00,25.0,17.0,-100.00,NNE,20,6.0,9.0,68,0.00,,,-99.99,,2013-03-14 13:02:00,
2013-03-14 09:12:00,26.0,17.0,-100.00,North,10,6.0,9.0,67,0.00,,,-99.99,,2013-03-14 13:12:00,
2013-03-14 09:22:00,26.0,17.0,-100.00,NNE,25,2.0,12.0,66,0.00,,,-99.99,,2013-03-14 13:22:00,
2013-03-14 09:32:00,27.0,17.0,-100.00,NNW,345,4.0,9.0,65,0.00,,,-99.99,,2013-03-14 13:32:00,
2013-03-14 09:42:00,27.0,17.0,-100.00,NNE,15,6.0,12.0,64,0.00,,,-99.99,,2013-03-14 13:42:00,
2013-03-14 09:52:00,29.0,17.0,-100.00,East,80,6.0,11.0,62,0.00,,,-99.99,,2013-03-14 13:52:00,
2013-03-14 10:02:00,29.0,15.0,-100.00,North,10,3.0,11.0,56,0.00,,,-99.99,,2013-03-14 14:02:00,
2013-03-14 10:12:00,29.0,15.0,-100.00,NE,40,6.0,9.0,55,0.00,,,-99.99,,2013-03-14 14:12:00,
2013-03-14 10:22:00,29.0,15.0,-100.00,NE,50,6.0,11.0,53,0.00,,,-99.99,,2013-03-14 14:22:00,
2013-03-14 10:32:00,30.0,15.0,-100.00,NNE,30,4.0,11.0,52,0.00,,,-99.99,,2013-03-14 14:32:00,
2013-03-14 10:42:00,30.0,15.0,-100.00,NE,50,4.0,12.0,51,0.00,,,-99.99,,2013-03-14 14:42:00,
2013-03-14 10:52:00,32.0,17.0,-100.00,NNE,30,9.0,12.0,52,0.00,,,-99.99,,2013-03-14 14:52:00,
2013-03-14 11:02:00,31.0,15.0,-100.00,NNE,20,7.0,12.0,51,0.00,,,-99.99,,2013-03-14 15:02:00,
2013-03-14 11:12:00,32.0,16.0,-100.00,NE,45,5.0,11.0,50,0.00,,,-99.99,,2013-03-14 15:12:00,
2013-03-14 11:22:00,32.0,15.0,-100.00,ENE,65,7.0,12.0,49,0.00,,,-99.99,,2013-03-14 15:22:00,
2013-03-14 11:33:00,33.0,17.0,-100.00,SSE,165,3.0,11.0,50,0.00,,,-99.99,,2013-03-14 15:33:00,
2013-03-14 11:43:00,33.0,15.0,-100.00,NE,55,7.0,14.0,48,0.00,,,-99.99,,2013-03-14 15:43:00,
2013-03-14 11:52:00,33.0,14.0,-100.00,NE,45,7.0,12.0,46,0.00,,,-99.99,,2013-03-14 15:52:00,
2013-03-14 12:03:00,33.0,15.0,-100.00,ENE,65,6.0,16.0,46,0.00,,,-99.99,,2013-03-14 16:03:00,
2013-03-14 12:12:00,34.0,17.0,-100.00,North,0,7.0,15.0,49,0.00,,,-99.99,,2013-03-14 16:12:00,
2013-03-14 12:23:00,34.0,15.0,-100.00,NE,35,5.0,14.0,45,0.00,,,-99.99,,2013-03-14 16:23:00,
2013-03-14 12:32:00,35.0,15.0,-100.00,North,10,9.0,16.0,44,0.00,,,-99.99,,2013-03-14 16:32:00,
2013-03-14 12:42:00,35.0,14.0,-100.00,NE,50,9.0,15.0,43,0.00,,,-99.99,,2013-03-14 16:42:00,
2013-03-14 12:52:00,35.0,16.0,-100.00,North,5,8.0,15.0,45,0.00,,,-99.99,,2013-03-14 16:52:00,
2013-03-14 13:02:00,35.0,14.0,-100.00,NNE,25,12.0,16.0,41,0.00,,,-99.99,,2013-03-14 17:02:00,
2013-03-14 13:12:00,35.0,14.0,-100.00,NNE,25,12.0,16.0,41,0.00,,,-99.99,,2013-03-14 17:12:00,
2013-03-14 13:23:00,35.0,13.0,-100.00,ENE,75,9.0,16.0,39,0.00,,,-99.99,,2013-03-14 17:23:00,
2013-03-14 13:33:00,36.0,13.0,-100.00,NE,55,8.0,15.0,38,0.00,,,-99.99,,2013-03-14 17:33:00,
2013-03-14 13:42:00,37.0,14.0,-100.00,East,80,7.0,13.0,38,0.00,,,-99.99,,2013-03-14 17:42:00,
2013-03-14 13:53:00,37.0,14.0,-100.00,East,80,7.0,13.0,38,0.00,,,-99.99,,2013-03-14 17:53:00,
2013-03-14 14:03:00,38.0,15.0,-100.00,NE,35,11.0,16.0,39,0.00,,,-99.99,,2013-03-14 18:03:00,
2013-03-14 14:12:00,37.0,15.0,-100.00,NNE,25,6.0,17.0,40,0.00,,,-99.99,,2013-03-14 18:12:00,
2013-03-14 14:23:00,38.0,15.0,-100.00,East,80,10.0,16.0,38,0.00,,,-99.99,,2013-03-14 18:23:00,
2013-03-14 14:33:00,38.0,15.0,-100.00,East,80,10.0,16.0,38,0.00,,,-99.99,,2013-03-14 18:33:00,
2013-03-14 14:52:00,39.0,15.0,-100.00,NNE,25,13.0,17.0,37,0.00,,,-99.99,,2013-03-14 18:52:00,
2013-03-14 15:03:00,39.0,15.0,-100.00,NNE,30,8.0,17.0,37,0.00,,,-99.99,,2013-03-14 19:03:00,
2013-03-14 15:12:00,40.0,16.0,-100.00,North,10,12.0,17.0,38,0.00,,,-99.99,,2013-03-14 19:12:00,
2013-03-14 15:23:00,39.0,15.0,-100.00,NNE,15,9.0,15.0,36,0.00,,,-99.99,,2013-03-14 19:23:00,
2013-03-14 15:32:00,40.0,16.0,-100.00,NNE,20,7.0,14.0,38,0.00,,,-99.99,,2013-03-14 19:32:00,
2013-03-14 15:42:00,40.0,16.0,-100.00,ENE,60,10.0,15.0,37,0.00,,,-99.99,,2013-03-14 19:42:00,
2013-03-14 15:52:00,41.0,17.0,-100.00,NNE,25,10.0,13.0,37,0.00,,,-99.99,,2013-03-14 19:52:00,
2013-03-14 16:02:00,40.0,16.0,-100.00,NE,50,9.0,18.0,38,0.00,,,-99.99,,2013-03-14 20:02:00,
2013-03-14 16:12:00,41.0,17.0,-100.00,North,10,12.0,16.0,37,0.00,,,-99.99,,2013-03-14 20:12:00,
2013-03-14 16:22:00,42.0,19.0,-100.00,NNE,25,9.0,13.0,38,0.00,,,-99.99,,2013-03-14 20:22:00,
2013-03-14 16:32:00,40.0,16.0,-100.00,East,90,7.0,16.0,37,0.00,,,-99.99,,2013-03-14 20:32:00,
2013-03-14 16:42:00,42.0,18.0,-100.00,NE,45,8.0,16.0,38,0.00,,,-99.99,,2013-03-14 20:42:00,
2013-03-14 16:52:00,41.0,17.0,-100.00,East,80,6.0,16.0,36,0.00,,,-99.99,,2013-03-14 20:52:00,
2013-03-14 17:03:00,41.0,17.0,-100.00,East,80,6.0,16.0,36,0.00,,,-99.99,,2013-03-14 21:03:00,
2013-03-14 17:12:00,42.0,17.0,-100.00,NE,35,5.0,16.0,36,0.00,,,-99.99,,2013-03-14 21:12:00,
2013-03-14 17:22:00,42.0,17.0,-100.00,NNE,20,11.0,15.0,37,0.00,,,-99.99,,2013-03-14 21:22:00,
2013-03-14 17:33:00,43.0,19.0,-100.00,North,10,7.0,16.0,38,0.00,,,-99.99,,2013-03-14 21:33:00,
2013-03-14 17:43:00,42.0,17.0,-100.00,East,80,7.0,16.0,36,0.00,,,-99.99,,2013-03-14 21:43:00,
2013-03-14 17:53:00,42.0,16.0,-100.00,ENE,60,9.0,13.0,35,0.00,,,-99.99,,2013-03-14 21:53:00,
2013-03-14 18:03:00,41.0,16.0,-100.00,NE,35,8.0,13.0,36,0.00,,,-99.99,,2013-03-14 22:03:00,
2013-03-14 18:13:00,42.0,17.0,-100.00,NNE,30,5.0,12.0,36,0.00,,,-99.99,,2013-03-14 22:13:00,
2013-03-14 18:23:00,42.0,17.0,-100.00,NE,55,4.0,10.0,36,0.00,,,-99.99,,2013-03-14 22:23:00,
2013-03-14 18:33:00,42.0,17.0,-100.00,NE,55,4.0,10.0,36,0.00,,,-99.99,,2013-03-14 22:33:00,
2013-03-14 18:42:00,41.0,17.0,-100.00,East,85,4.0,11.0,37,0.00,,,-99.99,,2013-03-14 22:42:00,
2013-03-14 18:52:00,41.0,17.0,-100.00,NE,35,7.0,14.0,37,0.00,,,-99.99,,2013-03-14 22:52:00,
2013-03-14 19:03:00,41.0,17.0,-100.00,ENE,65,3.0,11.0,37,0.00,,,-99.99,,2013-03-14 23:03:00,
2013-03-14 19:12:00,40.0,17.0,-100.00,East,85,6.0,14.0,38,0.00,,,-99.99,,2013-03-14 23:12:00,
2013-03-14 19:22:00,40.0,17.0,-100.00,ENE,75,4.0,9.0,40,0.00,,,-99.99,,2013-03-14 23:22:00,
2013-03-14 19:33:00,39.0,17.0,-100.00,East,80,6.0,11.0,40,0.00,,,-99.99,,2013-03-14 23:33:00,
2013-03-14 19:42:00,39.0,18.0,-100.00,ENE,60,3.0,7.0,41,0.00,,,-99.99,,2013-03-14 23:42:00,
2013-03-14 19:53:00,39.0,17.0,-100.00,ENE,65,2.0,9.0,41,0.00,,,-99.99,,2013-03-14 23:53:00,
2013-03-14 20:02:00,39.0,17.0,-100.00,NE,55,2.0,6.0,41,0.00,,,-99.99,,2013-03-15 00:02:00,
2013-03-14 20:12:00,39.0,17.0,-100.00,NE,50,2.0,6.0,41,0.00,,,-99.99,,2013-03-15 00:12:00,
2013-03-14 20:23:00,38.0,17.0,-100.00,East,80,1.0,5.0,41,0.00,,,-99.99,,2013-03-15 00:23:00,
2013-03-14 20:32:00,38.0,17.0,-100.00,ENE,70,1.0,5.0,42,0.00,,,-99.99,,2013-03-15 00:32:00,
2013-03-14 20:42:00,38.0,17.0,-100.00,NE,40,1.0,3.0,42,0.00,,,-99.99,,2013-03-15 00:42:00,
2013-03-14 20:52:00,38.0,17.0,-100.00,ENE,60,1.0,3.0,43,0.00,,,-99.99,,2013-03-15 00:52:00,
2013-03-14 21:02:00,37.0,17.0,-100.00,ENE,65,1.0,3.0,43,0.00,,,-99.99,,2013-03-15 01:02:00,
2013-03-14 21:12:00,37.0,17.0,-100.00,NE,55,1.0,3.0,43,0.00,,,-99.99,,2013-03-15 01:12:00,
2013-03-14 21:22:00,37.0,18.0,-100.00,NE,45,2.0,6.0,46,0.00,,,-99.99,,2013-03-15 01:22:00,
2013-03-14 21:32:00,37.0,19.0,-100.00,NNE,20,2.0,7.0,46,0.00,,,-99.99,,2013-03-15 01:32:00,
2013-03-14 21:42:00,37.0,19.0,-100.00,North,0,3.0,8.0,48,0.00,,,-99.99,,2013-03-15 01:42:00,
2013-03-14 21:52:00,36.0,19.0,-100.00,NNE,25,6.0,10.0,50,0.00,,,-99.99,,2013-03-15 01:52:00,
2013-03-14 22:03:00,36.0,19.0,-100.00,NNE,25,6.0,10.0,50,0.00,,,-99.99,,2013-03-15 02:03:00,
2013-03-14 22:12:00,36.0,19.0,-100.00,NNE,20,2.0,6.0,50,0.00,,,-99.99,,2013-03-15 02:12:00,
2013-03-14 22:22:00,36.0,19.0,-100.00,NNE,30,2.0,5.0,50,0.00,,,-99.99,,2013-03-15 02:22:00,
2013-03-14 22:32:00,35.0,20.0,-100.00,NNE,20,6.0,7.0,52,0.00,,,-99.99,,2013-03-15 02:32:00,
2013-03-14 22:42:00,35.0,20.0,-100.00,North,10,6.0,8.0,54,0.00,,,-99.99,,2013-03-15 02:42:00,
2013-03-14 22:52:00,35.0,20.0,-100.00,NNE,30,3.0,9.0,53,0.00,,,-99.99,,2013-03-15 02:52:00,
2013-03-14 23:02:00,35.0,20.0,-100.00,NNE,25,1.0,4.0,53,0.00,,,-99.99,,2013-03-15 03:02:00,
2013-03-14 23:12:00,34.0,20.0,-100.00,NNE,15,3.0,6.0,55,0.00,,,-99.99,,2013-03-15 03:12:00,
2013-03-14 23:22:00,34.0,20.0,-100.00,NNE,15,2.0,6.0,57,0.00,,,-99.99,,2013-03-15 03:22:00,
2013-03-14 23:33:00,34.0,20.0,-100.00,North,0,2.0,6.0,57,0.00,,,-99.99,,2013-03-15 03:33:00,
2013-03-14 23:43:00,33.0,21.0,-100.00,North,10,2.0,5.0,60,0.00,,,-99.99,,2013-03-15 03:43:00,
2013-03-14 23:52:00,33.0,20.0,-100.00,North,0,1.0,5.0,60,0.00,,,-99.99,,2013-03-15 03:52:00,